Date String (YYYY-MM-DD hh:mm:ss) UTC,Instrument flags,absolute air pressure of the measurement (hPa),sample flow rate (lpm),inlet stack bypass flow (lpm),air temperature of the measurement (°C),ambient temperature measured by the external sensor (°C),aerosol sample conditioner tube jacket temperature (°C),OPC LED temperature (°C),internal box temperature (°C),relative humidity of the measurement (%),span deviation,mass concentration of particles derived from Lorenz-Mie calculation of OPC scattering (μg/m³),mass concentration of particles derived from Lorenz-Mie calculation of OPC scattering (μg/m³),mass concentration of particles derived from Lorenz-Mie calculation of OPC scattering (μg/m³)
DateTimeUTC,F1_M11,P_M11,Q1_M11,Q2_M11,T1_M11,T2_M11,T3_M11,T4_M11,T5_M11,U1_M11,ZSPAN_M11,X0_M11,X2_M11,X1_M11
2024-02-05 02:00:00,SystemResetWarning,0831.1,5.01,000.00,021.3,020.7,000.0,029.8,023.1,19.9,0001.9,0015.06,0010.36,0009.94
2024-02-05 02:01:00,SystemResetWarning,0831.2,5.00,000.00,021.3,020.7,000.0,029.8,023.1,19.9,0001.8,0015.16,0010.43,0010.00
2024-02-05 02:02:00,SystemResetWarning,0831.2,5.00,000.00,021.3,020.7,000.0,029.8,023.1,19.9,0001.4,0015.26,0010.51,0010.08
2024-02-05 02:03:00,SystemResetWarning,0831.2,5.00,000.00,021.3,020.6,000.0,029.8,023.1,20.0,0001.5,0015.40,0010.61,0010.20
2024-02-05 02:04:00,SystemResetWarning,0831.2,5.00,000.00,021.3,020.6,000.0,029.8,023.1,20.0,0001.4,0015.56,0010.79,0010.32
2024-02-05 02:05:00,SystemResetWarning,0831.2,5.00,000.00,021.3,020.6,000.0,029.8,023.1,20.0,0001.5,0015.37,0010.80,0010.33
2024-02-05 02:06:00,SystemResetWarning,0831.2,5.00,000.00,021.3,020.6,000.0,029.8,023.1,20.0,0001.5,0015.32,0010.90,0010.43
2024-02-05 02:07:00,SystemResetWarning,0831.2,5.00,000.00,021.3,020.6,000.0,029.8,023.1,20.0,0001.3,0015.30,0010.96,0010.50
2024-02-05 02:08:00,SystemResetWarning,0831.2,5.00,000.00,021.3,020.6,000.0,029.8,023.0,20.0,0001.1,0015.57,0011.01,0010.55
2024-02-05 02:09:00,SystemResetWarning,0831.2,5.00,000.00,021.3,020.6,000.0,029.7,023.0,20.0,0001.1,0015.62,0011.03,0010.59
2024-02-05 02:10:00,SystemResetWarning,0831.2,5.00,000.00,021.2,020.6,000.0,029.7,023.0,20.0,0001.1,0015.72,0011.11,0010.67
2024-02-05 02:11:00,SystemResetWarning,0831.2,5.00,000.00,021.2,020.6,000.0,029.7,023.0,20.0,0000.9,0015.44,0011.18,0010.73
2024-02-05 02:12:00,SystemResetWarning,0831.2,5.00,000.00,021.2,020.5,000.0,029.7,023.0,20.0,0001.1,0015.43,0011.19,0010.73
2024-02-05 02:13:00,SystemResetWarning,0831.2,5.00,000.00,021.2,020.5,000.0,029.7,023.0,20.0,0001.3,0015.59,0011.12,0010.66
2024-02-05 02:14:00,SystemResetWarning,0831.2,5.00,000.00,021.2,020.5,000.0,029.7,023.0,20.0,0001.2,0015.46,0011.00,0010.54
2024-02-05 02:15:00,SystemResetWarning,0831.2,5.00,000.00,021.2,020.5,000.0,029.7,023.0,20.0,0001.2,0015.21,0010.82,0010.40
2024-02-05 02:16:00,SystemResetWarning,0831.2,5.00,000.00,021.2,020.5,000.0,029.7,022.9,20.0,0001.2,0015.02,0010.72,0010.29
2024-02-05 02:17:00,SystemResetWarning,0831.3,5.00,000.00,021.2,020.5,000.0,029.7,022.9,19.9,0001.1,0014.95,0010.63,0010.18
2024-02-05 02:18:00,SystemResetWarning,0831.2,5.00,000.00,021.2,020.5,000.0,029.7,022.9,19.9,0001.1,0014.81,0010.49,0010.05
2024-02-05 02:19:00,SystemResetWarning,0831.2,5.01,000.00,021.2,020.5,000.0,029.7,023.0,19.8,0001.1,0014.58,0010.36,0009.92
2024-02-05 02:20:00,SystemResetWarning,0831.2,5.00,000.00,021.2,020.5,000.0,029.7,023.0,19.8,0000.8,0014.42,0010.17,0009.73
2024-02-05 02:21:00,SystemResetWarning,0831.2,5.00,000.00,021.1,020.5,000.0,029.7,023.0,19.8,0000.8,0014.15,0009.90,0009.47
2024-02-05 02:22:00,SystemResetWarning,0831.2,4.99,000.00,021.1,020.5,000.0,029.6,022.9,19.8,0001.0,0014.02,0009.73,0009.27
2024-02-05 02:23:00,SystemResetWarning,0831.2,5.00,000.00,021.1,020.5,000.0,029.6,022.9,19.8,0000.7,0013.74,0009.56,0009.09
2024-02-05 02:24:00,SystemResetWarning,0831.2,5.00,000.00,021.1,020.5,000.0,029.6,022.9,19.7,0000.6,0013.75,0009.46,0008.96
2024-02-05 02:25:00,SystemResetWarning,0831.2,5.02,000.00,021.1,020.5,000.0,029.6,022.9,19.7,0000.7,0013.56,0009.29,0008.80
2024-02-05 02:26:00,SystemResetWarning,0831.2,5.00,000.00,021.1,020.5,000.0,029.6,022.9,19.7,0000.6,0013.26,0009.11,0008.66
2024-02-05 02:27:00,SystemResetWarning,0831.2,5.00,000.00,021.1,020.5,000.0,029.6,022.9,19.7,0000.5,0012.97,0008.93,0008.49
2024-02-05 02:28:00,SystemResetWarning,0831.2,5.00,000.00,021.1,020.5,000.0,029.6,022.9,19.7,0000.6,0012.72,0008.74,0008.32
2024-02-05 02:29:00,SystemResetWarning,0831.2,5.00,000.00,021.1,020.4,000.0,029.6,022.9,19.7,0000.8,0012.48,0008.57,0008.15
2024-02-05 02:30:00,SystemResetWarning,0831.2,5.00,000.00,021.1,020.4,000.0,029.6,022.8,19.7,0001.0,0012.42,0008.46,0008.03
2024-02-05 02:31:00,SystemResetWarning,0831.2,5.00,000.00,021.1,020.4,000.0,029.6,022.8,19.7,0001.0,0012.30,0008.35,0007.91
2024-02-05 02:32:00,SystemResetWarning,0831.1,5.01,000.00,021.1,020.4,000.0,029.6,022.8,19.7,0001.2,0012.29,0008.34,0007.87
2024-02-05 02:33:00,SystemResetWarning,0831.1,5.01,000.00,021.0,020.4,000.0,029.5,022.8,19.7,0001.2,0012.00,0008.20,0007.77
2024-02-05 02:34:00,SystemResetWarning,0831.2,5.00,000.00,021.0,020.4,000.0,029.5,022.8,19.8,0001.5,0011.85,0008.11,0007.71
2024-02-05 02:35:00,SystemResetWarning,0831.2,5.00,000.00,021.0,020.4,000.0,029.5,022.8,19.8,0001.5,0011.53,0007.92,0007.55
2024-02-05 02:36:00,SystemResetWarning,0831.2,5.00,000.00,021.0,020.4,000.0,029.5,022.8,19.8,0001.8,0010.94,0007.69,0007.34
2024-02-05 02:37:00,SystemResetWarning,0831.2,4.99,000.00,021.0,020.3,000.0,029.5,022.8,19.8,0001.8,0010.79,0007.49,0007.14
2024-02-05 02:38:00,SystemResetWarning,0831.3,5.00,000.00,021.0,020.3,000.0,029.5,022.7,19.8,0002.2,0011.03,0007.35,0007.00
2024-02-05 02:39:00,SystemResetWarning,0831.3,5.01,000.00,021.0,020.3,000.0,029.5,022.7,19.7,0002.2,0010.80,0007.16,0006.83
2024-02-05 02:40:00,SystemResetWarning,0831.2,5.01,000.00,021.0,020.3,000.0,029.5,022.7,19.7,0002.2,0010.60,0006.98,0006.68
2024-02-05 02:41:00,SystemResetWarning,0831.2,5.00,000.00,020.9,020.3,000.0,029.4,022.7,19.7,0002.0,0010.43,0006.78,0006.49
2024-02-05 02:42:00,SystemResetWarning,0831.2,5.00,000.00,020.9,020.3,000.0,029.4,022.7,19.6,0002.5,0009.97,0006.57,0006.31
2024-02-05 02:43:00,SystemResetWarning,0831.3,4.99,000.00,020.9,020.3,000.0,029.4,022.7,19.7,0002.7,0009.72,0006.40,0006.16
2024-02-05 02:44:00,SystemResetWarning,0831.3,5.00,000.00,020.9,020.3,000.0,029.4,022.6,19.6,0002.5,0009.65,0006.31,0006.07
2024-02-05 02:45:00,SystemResetWarning,0831.3,5.00,000.00,020.9,020.3,000.0,029.4,022.6,19.6,0002.4,0009.60,0006.23,0005.96
2024-02-05 02:46:00,SystemResetWarning,0831.2,5.00,000.00,020.9,020.2,000.0,029.4,022.6,19.6,0002.4,0009.49,0006.11,0005.84
2024-02-05 02:47:00,SystemResetWarning,0831.2,5.00,000.00,020.9,020.2,000.0,029.4,022.6,19.6,0002.2,0009.61,0006.07,0005.80
2024-02-05 02:48:00,SystemResetWarning,0831.2,5.00,000.00,020.9,020.2,000.0,029.3,022.6,19.6,0001.8,0009.60,0006.03,0005.74
2024-02-05 02:49:00,SystemResetWarning,0831.2,5.00,000.00,020.8,020.2,000.0,029.3,022.6,19.6,0001.1,0009.12,0005.98,0005.69
2024-02-05 02:50:00,SystemResetWarning,0831.3,5.00,000.00,020.8,020.2,000.0,029.3,022.6,19.5,0001.2,0008.96,0005.91,0005.61
2024-02-05 02:51:00,SystemResetWarning,0831.2,4.99,000.00,020.8,020.2,000.0,029.3,022.6,19.5,0001.1,0009.01,0005.90,0005.57
2024-02-05 02:52:00,SystemResetWarning,0831.2,5.00,000.00,020.8,020.1,000.0,029.3,022.5,19.5,0001.2,0008.89,0005.85,0005.53
2024-02-05 02:53:00,SystemResetWarning,0831.3,5.00,000.00,020.8,020.1,000.0,029.3,022.5,19.6,0001.0,0008.79,0005.82,0005.50
2024-02-05 02:54:00,SystemResetWarning,0831.2,4.99,000.00,020.8,020.1,000.0,029.3,022.5,19.6,0000.6,0008.86,0005.84,0005.51
2024-02-05 02:55:00,SystemResetWarning,0831.3,4.99,000.00,020.8,020.1,000.0,029.3,022.5,19.6,0000.3,0008.91,0005.89,0005.56
2024-02-05 02:56:00,SystemResetWarning,0831.2,4.99,000.00,020.8,020.1,000.0,029.2,022.5,19.6,0000.4,0008.90,0005.93,0005.62
2024-02-05 02:57:00,SystemResetWarning,0831.3,5.00,000.00,020.7,020.1,000.0,029.2,022.5,19.6,0000.8,0008.89,0005.94,0005.65
2024-02-05 02:58:00,SystemResetWarning,0831.3,5.00,000.00,020.7,020.1,000.0,029.2,022.5,19.5,0000.8,0008.80,0006.00,0005.70
2024-02-05 02:59:00,SystemResetWarning,0831.3,5.00,000.00,020.7,020.1,000.0,029.2,022.4,19.5,0001.1,0008.84,0006.03,0005.73
